Probability
0 0 0 0 0 0 0 0 0 0 0 0 0 0 0 0 0 0 0 0 0 0 0 0 0 0 0 0 0 0 0 0 0 0 0 0 0 0 0 0 0 0 0 0
0 0 0 0 0 0 0 0 0 0 0 0 0 0 0 0 0 0 0 0 0 0 0 0 0 0 0 0 0 0 0 0 0 0 0 0 0 0 0 0 0 0 0 0
0 0 0 0 0 0 0 0 0 0 0 0 0 0 0 0 0 0 0 0 0 0 0 0 0 0 0 0 0 0 0 0 0 0 0 0 0 0 0 0 0 0 0 0
0 0 0 0 0 0 0 0 0 0 0 0 0 0 0 0 0 0 0 0 0 0 0 0 0 0 0 0 0 0 0 0 0 0 0 0 0 0 0 0 0 0 0 0
0 0 0 0 0 0 0 0 0 0 0 0 0 0 0 0 0 0 0 0 0 0 0 0 0 0 0 0 0 0 0 0 0 0 0 0 0 0 0 0 0 0 0 0
0 0 0 0 0 0 0 0 0 0 0 0 0 0 0 0 0 0 0 0 0 0 0 0 0 0 0 0 0 0 0 0 0 0 0 0 0 0 0 0 0 0 0 0
0 0 0 0 0 0 0 0 0 0 0 0 0 0 0 0 0 0 0 0 0 0 0 0 0 0 0 0 0 0 0 0 0 0 0 0 0 0 0 0 0 0 0 0
0 0 0 0 0 0 0 0 0 0 0 0 0 0 0 0 0 0 0 0 0 0 0 0 0 0 0 0 0 0 0 0 0 0 0 0 0 0 0 0 0 0 0 0
0 0 0 0 0 0 0 0 0 0 0 0 0 0 0 0 0 0 0 0 0 0 0 0 0 0 0 0 0 0 0 0 0 0 0 0 0 0 0 0 0 0 0 0
0 0 0 0 0 0 0 0 0 0 0 0 0 0 0 0 0 0 0 0 0 0 0 0 0 0 0 0 0 0 0 0 0 0 0 0 0 0 0 0 0 0 0 0
0 0 0 0 0 0 0 0 0 0 0 0 0 0 0 0 0 0 0 0 0 0 0 0 0 0 0 0 0 0 0 0 0 0 0 0 0 0 0 0 0 0 0 0
0 0 0 0 0 0 0 0 0 0 0 0 0 0 0 0 0 0 0 0 0 0 0 0 0 0 0 0 0 0 0 0 0 0 0 0 0 0 0 0 0 0 0 0
0 0 0 0 0 0 0 0 0 0 0 0 0 0 0 0 0 0 0 0 0 0 0 0 0 0 0 0 0 0 0 0 0 0 0 0 0 0 0 0 0 0 0 0
0 0 0 0 0 0 0 0 0 0 0 0 0 0 0 0 0 0 0 0 0 0 0 0 0 0 0 0 0 0 0 0 0 0 0 0 0 0 0 0 0 0 0 0
0 0 0 0 0 0 0 0 0 0 0 0 0 0 0 0 0 0 0 0 0 0 0 0 0 0 0 0 0 0 0 0 0 0 0 0 0 0 0 0 0 0 0 0
0 0 0 0 0 0 0 0 0 0 0 0 0 0 0 0 0 0 0 0 0 0 0 0 0 0 0 0 0 0 0 0 0 0 0 0 0 0 0 0 0 0 0 0
0 0 0 0 0 0 0 0 0 0 0 0 0 0 0 0 0 0 0 0 0 0 0 0 0 0 0 0 0 0 0 0 0 0 0 0 0 0 0 0 0 0 0 0
0 0 0 0 0 0 0 0 0 0 0 0 0 0 0 0 0 0 0 0 0 0 0 0 0 0 0 0 0 0 0 0 0 0 0 0 0 0 0 0 0 0 0 0
0 0 0 0 0 0 0 0 0 0 0 0 0 0 0 0 0 0 0 0 0 0 0 0 0 0 0 0 0 0 0 0 0 0 0 0 0 0 0 0 0 0 0 0
0 0 0 0 0 0 0 0 0 0 0 0 0 0 0 0 0 0 0 0 0 0 0 0 0 0 0 0 0 0 0 0 0 0 0 0 0 0 0 0 0 0 0 0
0 0 0 0 0 0 0 0 0 0 0 0 0 0 0 0 0 0 0 0 0 0 0 0 0 0 0 0 0 0 0 0 0 0 0 0 0 0 0 0 0 0 0 0
0 0 0 0 0 0 0 0 0 0 0 0 0 0 0 0 0 0 0 0 0 0 0 0 0 0 0 0 0 0 0 0 0 0 0 0 0 0 0 0 0 0 0 0
0 0 0 0 0 0 0 0 0 0 0 0 0 0 0 0 0 0 0 0 0 0 0 0 0 0 0 0 0 0 0 0 0 0 0 0 0 0 0 0 0 0 0 0
0 0 0 0 0 0 0 0 0 0 0 0 0 0 0 0 0 0 0 0 0 0 0 0 0 0 0 0 0 0 0 0 0 0 0 0 0 0 0 0 0 0 0 0
0 0 0 0 0 0 0 0 0 0 0 0 0 0 0 0 0 0 0 0 0 0 0 0 0 0 0 0 0 0 0 0 0 0 0 0 0 0 0 0 0 0 0 0
0 0 0 0 0 0 0 0 0 0 0 0 0 0 0 0 0 0 0 0 0 0 0 0 0 0 0 0 0 0 0 0 0 0 0 0 0 0 0 0 0 0 0 0
0 0 0 0 0 0 0 0 0 0 0 0 0 0 0 0 0 0 0 0 0 0 0 0 0 0 0 0 0 0 0 0 0 0 0 0 0 0 0 0 0 0 0 0
Wind_Speed
3 4 9 8 10 11 9 9 9 8 8 6 3 1 0 1 3 4 6 7 7 7 6 5 5 4 4 4 4 3 4 4 4 4 5 5 6 6 6 7 9 8 9 10
3 2 3 3 7 12 9 7 6 4 6 4 2 1 2 2 2 4 5 6 7 7 7 5 5 4 3 3 3 3 3 3 4 5 5 6 6 7 7 8 8 9 9 11
3 2 3 5 8 11 7 6 9 9 7 3 3 3 2 2 1 2 4 6 8 8 7 6 5 4 3 2 2 2 3 4 5 5 6 6 7 7 8 8 9 9 10 11
5 4 6 6 1 6 6 2 4 4 4 4 4 3 1 1 2 3 3 6 8 7 6 5 4 4 3 2 3 3 4 5 5 5 6 6 6 7 7 7 8 9 10 11
5 4 5 5 3 7 7 2 2 6 6 4 3 3 4 2 1 2 4 6 6 6 5 5 4 3 3 3 3 4 4 5 5 6 6 7 7 7 7 8 9 9 10 11
5 4 7 4 3 3 7 3 2 5 6 5 4 2 3 2 1 2 5 5 6 6 6 5 4 3 3 3 3 4 5 5 6 6 6 7 7 7 7 8 9 11 12 10
4 4 7 3 1 4 5 7 5 5 6 5 5 4 3 2 3 4 5 6 7 7 5 4 3 3 2 2 3 4 5 5 6 6 7 7 6 6 8 9 10 10 13 11
6 5 7 1 5 6 5 5 6 5 5 5 4 2 2 4 5 6 6 6 6 6 5 3 3 2 1 3 4 5 5 6 6 7 7 7 7 8 8 9 10 11 12 12
7 5 1 1 4 4 6 6 5 5 4 4 3 1 1 3 4 5 5 5 5 5 4 3 2 2 2 4 5 5 5 6 7 7 7 7 7 8 8 7 8 10 10 11
2 2 1 3 4 4 4 4 3 3 2 2 1 1 1 2 4 4 5 5 4 4 3 1 1 1 3 5 5 5 6 7 7 7 7 6 6 6 7 7 9 11 11 12
3 2 4 2 3 4 4 5 5 4 3 2 2 2 2 3 4 5 4 4 4 4 2 1 2 3 4 5 5 5 6 7 7 7 7 7 7 6 8 7 10 14 11 11
6 7 7 5 3 4 4 4 4 2 2 3 3 2 3 3 4 5 5 4 4 3 0 2 4 5 5 5 5 5 6 6 5 6 6 7 8 9 13 15 21 22 22 20
2 3 4 6 5 4 5 5 4 4 3 2 2 2 3 3 4 5 5 4 3 1 1 3 4 6 6 6 5 6 6 7 6 6 6 7 8 10 11 13 16 19 21 23
3 5 5 4 4 5 5 5 4 3 2 2 2 2 3 4 4 5 4 2 1 0 2 3 5 6 6 5 5 6 6 8 9 6 7 8 8 9 10 12 12 10 13 20
4 5 6 6 6 5 4 3 2 1 0 1 2 2 4 4 4 3 2 1 1 2 3 4 6 7 5 5 5 6 6 6 7 7 7 8 9 9 9 11 12 12 10 12
6 6 6 5 5 4 3 3 2 2 2 2 2 2 3 3 3 2 1 1 1 3 4 5 6 5 5 5 6 6 6 13 13 8 7 8 9 10 10 11 12 11 12 12
8 6 5 4 4 4 4 4 4 3 3 4 4 3 4 4 3 2 2 2 3 5 5 5 6 6 6 6 6 6 6 8 15 10 8 9 10 10 10 10 11 12 11 15
5 6 6 5 4 3 2 3 4 5 5 5 4 5 5 5 4 4 3 2 3 4 5 5 5 6 5 6 5 5 6 6 7 8 9 9 11 10 9 11 12 13 11 13
6 6 6 4 4 3 3 3 4 4 4 4 5 6 5 5 4 3 2 2 3 5 5 5 11 7 6 8 10 5 7 8 9 9 10 14 13 9 10 11 11 12 12 12
5 4 4 3 3 3 3 3 3 3 4 4 5 5 4 4 4 3 2 3 4 5 5 7 7 6 6 7 12 6 7 8 9 10 10 9 9 9 10 11 11 12 12 12
4 4 3 3 3 4 4 3 3 4 4 5 5 5 4 3 3 2 2 4 4 4 5 10 6 5 6 9 13 6 6 7 8 8 9 9 9 10 10 11 12 12 12 12
3 3 4 4 4 4 4 3 4 4 4 4 4 4 3 2 2 2 4 4 4 8 6 4 5 10 14 15 6 5 6 7 8 8 7 8 9 10 10 11 10 11 11 11
3 3 4 4 4 3 2 2 3 3 4 4 4 4 3 2 2 2 4 3 3 9 8 5 11 18 20 10 5 6 8 8 8 8 8 8 8 9 10 10 10 10 10 10
3 3 2 2 2 1 2 2 1 1 2 2 2 2 2 1 1 2 3 7 12 13 7 10 18 19 18 6 6 7 8 8 8 8 9 9 8 8 9 10 10 10 10 11
1 0 1 1 1 1 1 0 2 3 3 3 3 3 2 0 2 3 4 6 11 13 7 10 17 18 11 7 8 8 8 8 9 10 9 8 8 9 10 9 9 9 9 10
0 1 1 1 1 1 2 3 3 3 3 3 2 1 1 2 3 4 4 6 8 12 8 7 8 11 8 8 8 9 9 10 11 10 10 10 10 10 9 9 10 9 9 9
2 2 3 3 3 3 3 4 4 4 3 2 0 1 2 3 4 4 6 6 6 6 7 7 7 8 9 9 10 9 9 9 9 9 10 9 9 8 9 10 9 9 9 9
Wind_Direction
146 166 158 173 180 177 185 184 183 215 218 244 262 266 215 142 153 157 162 157 152 140 130 121 106 90 79 66 52 52 46 30 6 345 337 337 335 333 332 332 336 327 326 326
78 104 147 170 189 187 196 187 197 194 231 248 260 111 63 53 129 168 176 163 148 138 136 133 125 115 99 77 48 43 35 8 347 343 341 339 334 332 332 330 327 326 325 325
135 135 117 240 206 183 190 190 174 199 215 164 118 101 56 14 350 216 192 164 152 151 152 147 143 135 123 99 48 34 14 353 345 339 335 330 331 331 327 322 322 323 322 322
125 137 216 238 120 157 148 154 176 137 128 136 134 112 40 5 312 275 184 154 153 152 145 136 128 125 124 90 41 18 358 340 333 330 326 323 322 319 317 316 320 318 317 314
132 179 258 281 177 148 133 115 132 132 124 109 93 50 2 349 323 264 171 156 150 141 131 125 123 122 104 57 24 2 339 327 323 323 321 321 319 316 315 318 318 312 310 308
127 162 228 224 141 152 103 139 219 139 133 130 109 96 266 296 50 115 123 122 118 114 114 119 115 100 76 33 2 336 320 314 312 313 312 309 305 304 309 311 308 309 308 305
147 203 255 230 159 118 152 204 165 139 136 143 167 194 226 148 135 129 115 110 112 114 116 115 100 82 56 0 325 309 308 308 309 309 308 300 299 303 306 306 308 308 308 306
153 189 242 155 135 168 171 128 131 143 157 167 187 197 147 144 136 125 112 112 116 115 112 105 98 87 17 321 303 305 307 307 307 305 305 311 304 300 300 304 309 309 307 306
183 196 273 37 138 127 125 132 156 163 175 166 165 158 100 125 136 134 130 127 120 124 126 120 98 81 330 301 306 311 313 310 305 302 294 291 294 300 306 305 305 306 305 306
170 239 172 99 106 110 115 126 131 122 124 132 134 53 58 126 146 147 141 138 130 128 123 104 18 339 291 295 307 316 313 306 300 297 296 292 292 293 298 301 300 303 306 310
182 161 115 137 134 123 104 89 81 72 70 76 88 77 109 147 160 157 146 138 127 119 116 308 315 312 307 310 319 312 301 293 294 295 295 300 297 290 297 283 295 306 309 311
201 194 169 180 151 114 108 90 72 71 74 77 94 123 133 148 155 150 140 125 115 112 110 306 318 316 315 316 309 297 296 296 297 299 299 302 303 303 303 307 312 312 312 313
168 135 126 121 97 87 104 98 80 77 77 108 114 129 143 144 140 128 122 122 131 157 290 313 319 311 304 301 294 287 290 300 300 298 297 299 300 306 312 315 314 313 314 315
135 111 105 118 121 105 110 119 115 104 99 113 135 136 133 129 128 131 139 146 144 3 325 314 301 289 287 288 289 292 297 307 310 297 296 298 302 307 310 312 314 311 312 315
84 104 127 122 119 123 127 129 115 110 149 154 139 139 141 145 152 155 145 108 39 341 302 285 278 280 290 301 308 306 304 296 291 288 293 301 305 307 307 306 307 308 310 315
120 105 116 134 151 157 160 170 191 225 232 231 211 191 170 159 152 148 139 124 266 276 276 276 282 293 309 313 309 300 291 303 310 305 304 307 307 307 307 307 308 310 313 316
146 156 156 156 168 180 192 201 207 220 227 233 228 201 172 160 164 198 234 233 236 255 269 282 290 297 296 290 285 287 286 296 309 312 304 304 305 304 305 307 310 311 310 313
153 152 155 150 157 176 211 219 220 221 223 226 207 179 179 185 203 223 236 247 270 286 284 279 281 283 278 281 279 276 288 294 297 299 301 303 304 305 309 308 308 308 310 312
138 138 140 144 156 178 217 235 232 225 218 196 182 188 193 198 207 221 233 281 303 300 291 287 304 305 290 291 308 288 292 295 297 299 301 306 309 305 305 307 308 309 309 311
137 140 148 161 176 197 226 240 234 225 209 186 179 183 193 205 206 219 242 266 257 253 268 284 287 279 282 288 305 288 284 287 294 300 303 302 303 306 307 307 308 309 309 309
160 170 188 211 235 240 237 231 216 220 208 186 187 197 204 203 194 201 238 273 272 269 279 298 301 292 292 295 301 288 284 288 295 298 300 302 303 305 306 306 306 306 306 307
184 197 214 222 236 254 251 228 215 213 197 192 197 191 189 209 225 236 237 245 269 300 302 281 283 298 304 308 297 288 290 294 298 297 295 295 298 301 300 298 298 302 305 307
196 207 214 218 227 246 263 236 219 207 201 198 193 191 196 207 214 241 279 277 282 301 307 288 300 307 311 313 295 297 299 297 296 294 293 291 290 290 291 295 299 303 303 303
211 209 208 190 167 222 279 282 224 183 165 152 150 148 149 166 275 250 252 299 307 308 302 299 308 311 316 312 299 297 294 292 289 287 289 288 286 289 294 297 298 298 298 300
276 187 141 140 181 243 263 91 106 104 105 94 83 74 76 117 262 285 287 288 300 309 300 303 309 313 314 297 295 294 292 286 287 291 292 295 295 294 294 294 296 299 301 300
170 158 132 139 131 127 119 114 106 103 100 89 67 36 348 309 285 280 281 281 285 301 304 298 297 302 298 294 293 293 291 293 296 297 293 292 293 294 297 298 299 299 299 298
117 101 93 81 65 73 89 96 99 94 88 92 10 310 313 307 300 297 295 293 294 294 294 294 295 294 295 294 294 292 290 290 290 292 293 293 293 295 297 297 296 295 294 294